Location: Karcze
(52.0945°N, 22.4786°E)
Time: 01:12:23
(UTC+00:00)

COSMOS 2406 - Pass Details

Date: 14 July 2020
Orbit: 844 x 863 km, 71.0° (Epoch: 06 August)

Event Time Altitude Azimuth Distance (km) Brightness Sun altitude
Exits shadow 00:49:37 14° 215° (SW) 2,228 4.7 -10.7°
Maximum altitude 00:54:39 80° 301° (WNW) 883 3.3 -10.3°
Drops below altitude 10° 01:00:27 10° 29° (NNE) 2,510 7.3 -9.8°
Sets 01:02:56 0° 31° (NNE) 3,449 8.8 -9.6°
